FW7086 Weather Reports


Display with metric or nautical units.
time (UTC)temp
F
wind
direction
speed
MPH
gust
MPH
rain 1hr
in
rain 24hr
in
rain mn
in
humidity
%
barometer
mb
20260901024048 79 159 1.0 1.0 0.00 0.25 0.25 91 1015.7
20260901023546 79 92 0.0 0.0 0.00 0.25 0.25 92 1015.8
20260901023042 79 28 0.0 0.0 0.00 0.25 0.25 91 1015.8
20260901022537 79 31 0.0 0.0 0.00 0.25 0.25 91 1015.8
20260901022032 79 31 0.0 0.0 0.00 0.25 0.25 90 1015.6
20260901021528 80 169 0.0 0.0 0.00 0.25 0.25 89 1015.4
20260901021023 80 164 2.0 2.0 0.00 0.25 0.25 89 1015.6
20260901020519 80 250 0.0 0.0 0.00 0.25 0.25 90 1015.8
20260901020014 80 290 0.0 0.0 0.00 0.25 0.25 89 1015.8
20260901015509 80 290 0.0 0.0 0.00 0.25 0.25 88 1015.7
20260901015008 80 212 0.0 0.0 0.00 0.25 0.25 88 1015.8
20260901014504 81 143 0.0 0.0 0.00 0.25 0.25 87 1015.6
20260901014000 81 143 0.0 0.0 0.00 0.25 0.25 86 1015.6
20260901013455 81 185 0.0 0.0 0.00 0.25 0.25 86 1015.4
20260901012951 82 158 1.0 1.0 0.00 0.25 0.25 85 1015.5
20260901012450 82 168 0.0 0.0 0.00 0.25 0.25 85 1015.3
20260901011946 82 156 0.0 0.0 0.00 0.25 0.25 85 1015.3
20260901011442 82 160 0.0 0.0 0.00 0.25 0.25 85 1015.1
20260901010940 82 164 0.0 1.0 0.00 0.25 0.25 84 1015.1
20260901010435 82 230 1.0 2.0 0.00 0.25 0.25 83 1015.2
20260901005934 82 177 2.0 3.0 0.00 0.25 0.25 84 1015.1
20260901005429 82 190 1.0 2.0 0.00 0.25 0.25 84 1015.2
20260901004925 82 121 0.0 0.0 0.00 0.25 0.25 85 1015.3
20260901004424 81 162 0.0 1.0 0.00 0.25 0.25 87 1015.5
20260901003919 80 169 0.0 0.0 0.00 0.25 0.25 89 1015.3
20260901003414 80 159 0.0 0.0 0.00 0.25 0.25 90 1015.4
20260901002913 80 323 0.0 0.0 0.00 0.25 0.25 91 1015.3
20260901002412 80 299 0.0 0.0 0.00 0.25 0.25 90 1015.2
20260901001907 80 290 0.0 0.0 0.00 0.25 0.25 90 1015.1
20260901001402 80 290 0.0 0.0 0.00 0.25 0.25 90 1015.0
20260901000857 80 290 0.0 0.0 0.00 0.25 0.25 90 1014.8
20260901000352 80 233 0.0 0.0 0.00 0.25 0.25 90 1014.9
20260831235851 80 85 0.0 0.0 0.00 0.25 0.25 90 1014.4
20260831235347 80 85 0.0 0.0 0.00 0.25 0.25 90 1014.4
20260831234842 80 84 0.0 0.0 0.00 0.25 0.25 90 1014.8
20260831234342 80 85 0.0 0.0 0.00 0.25 0.25 89 1014.7
20260831233837 80 84 0.0 0.0 0.00 0.25 0.25 89 1015.2
20260831233332 80 84 0.0 0.0 0.00 0.25 0.25 88 1015.3
20260831232828 81 174 0.0 0.0 0.00 0.25 0.25 87 1015.5
20260831232324 82 158 0.0 0.0 0.00 0.25 0.25 85 1015.5
20260831231820 82 157 0.0 0.0 0.00 0.25 0.25 83 1015.2
20260831231316 83 176 2.0 3.0 0.00 0.25 0.25 79 1015.0
20260831230811 83 188 4.0 6.0 0.00 0.25 0.25 78 1014.9
20260831230306 84 139 1.0 1.0 0.00 0.25 0.25 80 1015.1
20260831225806 83 116 4.0 4.0 0.00 0.25 0.25 78 1014.7
20260831225301 81 174 2.0 3.0 0.00 0.25 0.25 88 1014.8
20260831224756 80 166 1.0 2.0 0.00 0.25 0.25 93 1014.8
20260831224251 79 161 0.0 0.0 0.07 0.25 0.25 94 1015.0
20260831223746 79 51 0.0 0.0 0.07 0.25 0.25 93 1015.0
20260831223242 80 350 0.0 0.0 0.42 0.24 0.24 93 1015.2
20260831222738 80 346 0.0 0.0 0.42 0.24 0.24 91 1014.9
20260831222234 81 250 0.0 0.0 0.17 0.17 0.17 88 1015.3
20260831221729 82 160 0.0 0.0 0.17 0.17 0.17 85 1015.3
20260831221224 84 124 0.0 0.0 0.07 0.14 0.14 81 1015.3
20260831220719 85 273 1.0 1.0 0.07 0.14 0.14 76 1015.3
20260831220214 85 306 1.0 1.0 0.00 0.13 0.13 73 1014.9
20260831215709 84 166 0.0 1.0 0.00 0.13 0.13 76 1014.5
20260831215205 86 101 0.0 0.0 0.00 0.13 0.13 75 1014.9
20260831214702 86 25 0.0 1.0 0.00 0.13 0.13 68 1015.0
20260831214159 87 17 0.0 1.0 0.00 0.13 0.13 67 1015.0
20260831213654 87 237 2.0 2.0 0.00 0.13 0.13 65 1014.2
20260831213150 87 152 5.0 7.0 0.00 0.13 0.13 64 1014.2
20260831212645 87 167 6.0 9.0 0.00 0.13 0.13 64 1014.1
20260831212142 88 204 2.0 3.0 0.00 0.13 0.13 64 1014.3
20260831211641 87 177 5.0 8.0 0.00 0.13 0.13 64 1014.6
20260831211141 88 181 2.0 6.0 0.00 0.13 0.13 64 1014.5
20260831210636 87 175 4.0 4.0 0.00 0.13 0.13 65 1014.8
20260831210132 87 187 3.0 3.0 0.00 0.13 0.13 66 1014.9
20260831205631 87 256 0.0 1.0 0.00 0.13 0.13 66 1015.3
20260831205127 87 204 0.0 0.0 0.00 0.13 0.13 70 1015.4
20260831204627 87 355 1.0 1.0 0.00 0.13 0.13 66 1015.2
20260831204125 86 174 1.0 1.0 0.00 0.13 0.13 67 1015.2
20260831203620 86 331 1.0 1.0 0.00 0.13 0.13 66 1015.3
20260831203120 87 292 1.0 2.0 0.00 0.13 0.13 65 1015.4
20260831202619 87 266 3.0 4.0 0.00 0.13 0.13 63 1015.3
20260831202119 87 268 4.0 6.0 0.00 0.13 0.13 63 1015.2
20260831201618 88 212 5.0 7.0 0.00 0.13 0.13 62 1014.9
20260831201114 88 198 7.0 13.0 0.00 0.13 0.13 62 1014.7
20260831200610 86 166 5.0 8.0 0.00 0.13 0.13 64 1014.4
20260831200109 85 165 4.0 6.0 0.00 0.13 0.13 66 1014.8
20260831195605 84 195 1.0 3.0 0.12 0.13 0.13 70 1014.7
20260831195100 84 195 4.0 4.0 0.12 0.13 0.13 72 1014.2
20260831194555 85 155 1.0 1.0 0.00 0.11 0.11 70 1014.5
20260831194049 86 267 2.0 2.0 0.05 0.11 0.11 65 1014.9
20260831193545 86 166 2.0 3.0 0.05 0.11 0.11 65 1015.3
20260831193045 85 241 3.0 6.0 0.00 0.10 0.10 64 1015.0
20260831192540 84 161 4.0 4.0 0.00 0.10 0.10 65 1014.6
20260831192035 85 161 9.0 13.0 0.00 0.10 0.10 66 1014.7
20260831191531 85 140 4.0 6.0 0.00 0.10 0.10 66 1015.0
20260831191027 86 218 6.0 8.0 0.00 0.10 0.10 61 1015.5
20260831190522 86 150 4.0 4.0 0.00 0.10 0.10 63 1015.2
20260831190021 87 149 8.0 11.0 0.00 0.10 0.10 61 1014.6
20260831185517 87 230 2.0 3.0 0.00 0.10 0.10 60 1015.0
20260831185012 87 175 4.0 6.0 0.00 0.10 0.10 60 1015.3
20260831184506 88 112 6.0 8.0 0.00 0.10 0.10 59 1015.2
20260831184002 88 177 3.0 6.0 0.00 0.10 0.10 59 1015.1
20260831183501 88 191 6.0 7.0 0.00 0.10 0.10 59 1015.1
20260831183000 87 235 7.0 8.0 0.00 0.10 0.10 60 1015.0
20260831182455 87 202 6.0 10.0 0.00 0.10 0.10 61 1015.1
20260831181951 87 200 6.0 10.0 0.00 0.10 0.10 61 1014.9
20260831181446 87 172 8.0 10.0 0.00 0.10 0.10 61 1014.8
20260831180941 86 163 9.0 10.0 0.00 0.10 0.10 61 1015.0
20260831180441 85 180 4.0 7.0 0.00 0.10 0.10 64 1015.2
20260831175940 85 180 4.0 6.0 0.00 0.10 0.10 65 1015.4
20260831175437 84 183 8.0 11.0 0.00 0.10 0.10 65 1015.3
20260831174932 84 245 3.0 4.0 0.00 0.10 0.10 66 1015.2
20260831174428 83 163 6.0 8.0 0.00 0.10 0.10 68 1015.5
20260831173927 82 159 8.0 13.0 0.00 0.10 0.10 68 1015.5
20260831173426 81 162 5.0 7.0 0.00 0.10 0.10 71 1015.5
20260831172922 81 137 3.0 4.0 0.00 0.10 0.10 72 1015.5
20260831172418 81 177 10.0 13.0 0.00 0.10 0.10 72 1015.8
20260831171918 80 181 2.0 2.0 0.00 0.10 0.10 77 1015.8
20260831171414 79 220 4.0 6.0 0.00 0.10 0.10 78 1016.0
20260831170910 78 201 7.0 9.0 0.00 0.10 0.10 77 1016.1
20260831170406 78 179 10.0 11.0 0.00 0.10 0.10 78 1016.1
20260831165902 77 164 4.0 7.0 0.00 0.10 0.10 79 1016.2
20260831165358 77 167 4.0 4.0 0.00 0.10 0.10 80 1016.2
20260831164855 77 179 6.0 8.0 0.00 0.10 0.10 80 1016.4
20260831164351 76 164 1.0 1.0 0.00 0.10 0.10 81 1016.2
20260831163846 76 146 2.0 3.0 0.00 0.10 0.10 82 1016.4
20260831163341 75 151 2.0 2.0 0.00 0.10 0.10 82 1016.5
20260831162839 75 215 4.0 6.0 0.00 0.10 0.10 83 1016.5
20260831162335 75 195 7.0 9.0 0.00 0.10 0.10 83 1016.7
20260831161834 75 185 1.0 1.0 0.00 0.10 0.10 85 1016.7
20260831161330 75 216 5.0 6.0 0.00 0.10 0.10 84 1016.9
20260831160826 75 211 5.0 7.0 0.00 0.10 0.10 85 1016.8
20260831160325 74 153 4.0 6.0 0.00 0.10 0.10 87 1016.8
20260831155821 73 155 3.0 3.0 0.00 0.10 0.10 88 1016.7
20260831155320 73 163 2.0 2.0 0.00 0.10 0.10 89 1016.5
20260831154816 73 102 6.0 8.0 0.00 0.10 0.10 89 1016.7
20260831154313 73 198 3.0 4.0 0.00 0.10 0.10 90 1016.8
20260831153811 72 185 3.0 4.0 0.00 0.10 0.10 92 1016.8
20260831153307 71 173 2.0 3.0 0.00 0.10 0.10 93 1017.0
20260831152803 71 126 1.0 2.0 0.00 0.10 0.10 93 1017.0
20260831152258 71 181 4.0 6.0 0.07 0.10 0.10 92 1017.2
20260831151753 71 100 0.0 0.0 0.14 0.10 0.10 92 1017.3
20260831151252 72 166 2.0 2.0 0.07 0.09 0.09 91 1017.3
20260831150748 72 199 0.0 2.0 0.00 0.08 0.08 89 1017.3
20260831150243 72 137 6.0 8.0 0.00 0.08 0.08 89 1017.3
20260831145742 72 151 2.0 3.0 0.00 0.08 0.08 90 1016.9
20260831145239 72 156 3.0 6.0 0.00 0.08 0.08 90 1017.0
20260831144734 72 135 2.0 2.0 0.00 0.08 0.08 90 1017.0
20260831144230 72 145 1.0 2.0 0.00 0.08 0.08 91 1017.2
20260831143730 72 159 1.0 2.0 0.00 0.08 0.08 92 1017.0
20260831143225 72 198 2.0 3.0 0.00 0.08 0.08 92 1017.2
20260831142721 71 80 1.0 2.0 0.00 0.08 0.08 92 1017.3
20260831142216 72 175 2.0 3.0 0.00 0.08 0.08 92 1017.3
20260831141715 71 82 0.0 0.0 0.00 0.08 0.08 92 1017.2
20260831141210 71 182 2.0 3.0 0.00 0.08 0.08 93 1017.3
20260831140710 71 38 0.0 0.0 0.00 0.08 0.08 94 1017.5
20260831140205 71 157 0.0 0.0 0.00 0.08 0.08 94 1017.6
20260831135703 70 104 0.0 0.0 0.00 0.08 0.08 95 1017.4
20260831135158 70 94 0.0 0.0 0.05 0.08 0.08 95 1017.6
20260831134654 70 179 0.0 0.0 0.05 0.08 0.08 95 1017.5
20260831134150 70 120 0.0 1.0 0.00 0.07 0.07 94 1017.8
20260831133649 71 95 0.0 0.0 0.00 0.07 0.07 93 1017.8
20260831133143 70 78 0.0 0.0 0.00 0.07 0.07 93 1017.8
20260831132640 70 61 2.0 3.0 0.00 0.07 0.07 94 1017.7
20260831132138 70 108 0.0 0.0 0.07 0.07 0.07 94 1017.9
20260831131633 70 138 0.0 0.0 0.19 0.07 0.07 94 1017.7
20260831131130 71 177 0.0 0.0 0.19 0.07 0.07 93 1017.7
20260831130625 71 75 0.0 0.0 0.05 0.04 0.04 93 1018.0
20260831130121 71 164 0.0 0.0 0.05 0.04 0.04 92 1017.9
20260831125619 71 151 0.0 0.0 0.00 0.03 0.03 91 1017.9
20260831125115 71 146 0.0 0.0 0.07 0.03 0.03 91 1017.5
20260831124611 71 157 0.0 0.0 0.07 0.03 0.03 90 1017.7
20260831124106 71 105 0.0 0.0 0.00 0.02 0.02 90 1017.5
20260831123606 71 3 0.0 0.0 0.00 0.02 0.02 89 1017.8
20260831123105 71 34 0.0 0.0 0.00 0.02 0.02 89 1017.4
20260831122600 71 81 0.0 0.0 0.00 0.02 0.02 89 1017.4
20260831122056 71 25 0.0 0.0 0.00 0.02 0.02 89 1017.1
20260831121555 71 88 0.0 0.0 0.00 0.02 0.02 89 1017.1
20260831121052 71 32 0.0 0.0 0.00 0.02 0.02 88 1017.0
20260831120551 72 165 0.0 0.0 0.00 0.02 0.02 86 1016.9
20260831120047 71 140 0.0 0.0 0.00 0.02 0.02 85 1016.7
20260831115542 71 5 0.0 0.0 0.00 0.02 0.02 87 1017.0
20260831115037 71 14 1.0 2.0 0.00 0.02 0.02 89 1016.8
20260831114537 71 28 1.0 1.0 0.00 0.02 0.02 87 1016.5
20260831114036 73 67 0.0 0.0 0.00 0.02 0.02 84 1016.3
20260831113536 73 19 0.0 0.0 0.12 0.02 0.02 80 1016.1
20260831113032 75 211 3.0 3.0 0.12 0.02 0.02 78 1016.0
20260831112531 75 133 1.0 2.0 0.00 0.00 0.00 74 1016.0
20260831112026 75 165 3.0 3.0 0.00 0.00 0.00 74 1015.8
20260831111522 75 196 3.0 3.0 0.00 0.00 0.00 75 1015.6
20260831111018 75 155 2.0 2.0 0.00 0.00 0.00 76 1015.5
20260831110513 74 148 0.0 1.0 0.00 0.00 0.00 78 1015.5
20260831110014 74 154 2.0 3.0 0.00 0.00 0.00 78 1015.6
20260831105508 74 153 2.0 3.0 0.00 0.00 0.00 78 1015.5
20260831105003 74 155 2.0 2.0 0.00 0.00 0.00 78 1015.4
20260831104459 74 145 2.0 3.0 0.00 0.00 0.00 78 1015.8
20260831103955 74 166 2.0 3.0 0.00 0.00 0.00 79 1015.6
20260831103454 74 183 1.0 2.0 0.00 0.00 0.00 78 1015.8
20260831102950 74 191 0.0 0.0 0.00 0.00 0.00 79 1015.5
20260831102445 74 164 0.0 0.0 0.00 0.00 0.00 80 1015.5
20260831101940 74 146 2.0 2.0 0.00 0.00 0.00 80 1015.5
20260831101435 74 174 4.0 6.0 0.00 0.00 0.00 80 1015.6
20260831100931 74 165 1.0 1.0 0.00 0.00 0.00 81 1015.4
20260831100427 74 160 2.0 2.0 0.00 0.00 0.00 80 1015.6
20260831095921 74 158 3.0 3.0 0.00 0.00 0.00 81 1015.6
20260831095421 74 162 3.0 4.0 0.00 0.00 0.00 81 1015.6
20260831094916 74 186 2.0 3.0 0.00 0.00 0.00 81 1015.5
20260831094412 74 159 1.0 1.0 0.00 0.00 0.00 81 1015.5
20260831093908 74 205 2.0 3.0 0.00 0.00 0.00 81 1015.8
20260831093402 74 166 4.0 4.0 0.00 0.00 0.00 82 1015.7
20260831092859 74 217 0.0 1.0 0.00 0.00 0.00 82 1015.7
20260831092354 74 201 1.0 2.0 0.00 0.00 0.00 82 1015.6
20260831091849 74 164 1.0 2.0 0.00 0.00 0.00 82 1015.6
20260831091345 74 136 1.0 1.0 0.00 0.00 0.00 82 1015.7
20260831090840 74 161 2.0 2.0 0.00 0.00 0.00 82 1015.9
20260831090336 74 159 2.0 3.0 0.00 0.00 0.00 81 1015.9
20260831085833 74 172 3.0 3.0 0.00 0.00 0.00 82 1015.7
20260831085332 74 163 1.0 2.0 0.00 0.00 0.00 81 1015.9
20260831084827 74 151 2.0 2.0 0.00 0.00 0.00 81 1016.0
20260831084323 74 160 2.0 2.0 0.00 0.00 0.00 81 1015.9
20260831083819 75 155 1.0 1.0 0.00 0.00 0.00 81 1015.9
20260831083314 75 180 2.0 3.0 0.00 0.00 0.00 80 1015.8
20260831082813 75 164 2.0 2.0 0.00 0.00 0.00 82 1016.0
20260831082308 75 170 4.0 6.0 0.00 0.00 0.00 81 1015.9
20260831081804 75 181 4.0 4.0 0.00 0.00 0.00 81 1015.8
20260831081259 75 151 2.0 2.0 0.00 0.00 0.00 83 1015.9
20260831080754 75 158 1.0 1.0 0.00 0.00 0.00 83 1015.7
20260831080249 74 157 0.0 1.0 0.00 0.00 0.00 83 1015.9
20260831075745 75 147 0.0 0.0 0.00 0.00 0.00 84 1016.0
20260831075241 75 155 0.0 0.0 0.00 0.00 0.00 84 1016.0
20260831074740 75 155 0.0 0.0 0.00 0.00 0.00 83 1015.8
20260831074239 75 157 1.0 1.0 0.00 0.00 0.00 82 1015.9
20260831073736 75 147 0.0 1.0 0.00 0.00 0.00 82 1015.9
20260831073234 75 185 2.0 3.0 0.00 0.00 0.00 83 1015.9
20260831072729 75 71 0.0 0.0 0.00 0.00 0.00 84 1015.9
20260831072226 75 109 0.0 0.0 0.00 0.00 0.00 84 1015.9
20260831071726 75 171 0.0 1.0 0.00 0.00 0.00 83 1015.9
20260831071221 75 115 1.0 1.0 0.00 0.00 0.00 83 1016.0
20260831070720 75 150 0.0 0.0 0.00 0.00 0.00 83 1016.0
20260831070215 75 171 0.0 1.0 0.00 0.00 0.00 84 1015.9
20260831065714 75 147 1.0 2.0 0.00 0.00 0.00 84 1016.0
20260831065213 75 160 0.0 1.0 0.00 0.00 0.00 85 1016.3
20260831064708 75 132 0.0 0.0 0.00 0.00 0.00 86 1016.2
20260831064203 75 129 1.0 1.0 0.00 0.00 0.00 86 1016.1
20260831063659 75 150 0.0 1.0 0.00 0.00 0.00 87 1016.1
20260831063154 74 161 2.0 3.0 0.00 0.00 0.00 88 1016.0
20260831062654 74 145 1.0 1.0 0.00 0.00 0.00 89 1016.4
20260831062154 74 158 0.0 0.0 0.00 0.00 0.00 90 1016.3
20260831061652 73 162 0.0 0.0 0.00 0.00 0.00 91 1016.3
20260831061148 73 133 0.0 0.0 0.00 0.00 0.00 93 1016.3
20260831060644 73 93 0.0 0.0 0.00 0.00 0.00 92 1016.4
20260831060143 73 93 0.0 0.0 0.00 0.00 0.00 92 1016.4
20260831055642 73 93 0.0 0.0 0.00 0.00 0.00 91 1016.4
20260831055138 74 93 0.0 0.0 0.00 0.00 0.00 91 1016.3
20260831054638 74 93 0.0 0.0 0.00 0.00 0.00 91 1016.1
20260831054137 73 93 0.0 0.0 0.00 0.00 0.00 91 1016.2
20260831053632 73 93 0.0 0.0 0.00 0.00 0.00 91 1016.2
20260831053131 73 164 0.0 0.0 0.00 0.00 0.00 92 1016.3
20260831052630 74 165 0.0 0.0 0.00 0.00 0.00 91 1016.1
20260831052130 74 153 0.0 0.0 0.00 0.00 0.00 91 1016.3
20260831051628 74 61 0.0 0.0 0.00 0.00 0.00 92 1016.3
20260831051127 74 100 0.0 0.0 0.00 0.00 0.00 92 1016.1
20260831050627 74 108 0.0 0.0 0.00 0.00 0.00 92 1016.2
20260831050126 74 126 0.0 0.0 0.00 0.00 0.00 92 1016.1
20260831045626 74 106 0.0 0.0 0.00 0.18 0.18 92 1016.2
20260831045121 74 75 0.0 0.0 0.00 0.18 0.18 91 1016.4
20260831044616 74 62 1.0 2.0 0.00 0.18 0.18 91 1016.3
20260831044111 75 77 0.0 0.0 0.00 0.18 0.18 91 1016.1
20260831043607 75 44 0.0 0.0 0.00 0.18 0.18 90 1016.3
20260831043102 74 63 0.0 0.0 0.00 0.18 0.18 91 1016.1
20260831042601 74 55 0.0 0.0 0.00 0.18 0.18 92 1016.2
20260831042056 74 84 0.0 0.0 0.00 0.18 0.18 91 1015.9
20260831041551 74 139 0.0 0.0 0.00 0.18 0.18 92 1015.8
20260831041051 75 126 1.0 2.0 0.00 0.18 0.18 92 1015.8
20260831040545 74 192 5.0 6.0 0.00 0.18 0.18 92 1016.0
20260831040045 74 174 1.0 2.0 0.00 0.18 0.18 93 1015.9
20260831035543 74 174 2.0 3.0 0.00 0.18 0.18 93 1016.3
20260831035039 74 129 0.0 0.0 0.00 0.18 0.18 94 1016.1
20260831034538 74 135 1.0 1.0 0.05 0.18 0.18 94 1016.1
20260831034033 74 170 2.0 2.0 0.05 0.18 0.18 94 1016.2
20260831033529 75 164 1.0 1.0 0.00 0.17 0.17 93 1016.7
20260831033024 75 169 4.0 6.0 0.00 0.17 0.17 92 1017.0
20260831032523 75 172 3.0 4.0 0.00 0.17 0.17 91 1017.3
20260831032020 75 176 2.0 2.0 0.00 0.17 0.17 91 1017.3
20260831031519 75 197 1.0 2.0 0.00 0.17 0.17 91 1017.5
20260831031018 75 178 2.0 3.0 0.00 0.17 0.17 91 1017.3
20260831030518 75 157 2.0 3.0 0.00 0.17 0.17 92 1017.6
20260831030017 75 165 0.0 0.0 0.00 0.17 0.17 93 1017.4
20260831025515 75 167 2.0 2.0 0.00 0.17 0.17 92 1017.6
20260831025011 75 196 3.0 4.0 0.00 0.17 0.17 93 1017.3
20260831024507 75 190 0.0 0.0 0.00 0.17 0.17 94 1017.3